User: anonymous   Login
Location: Bouchavesnes-Bergen
(49.9859°N, 2.9203°E)
Time: 00:12:28
(UTC+00:00)
Language:

Cosmos 2344 - Orbit

View from above orbital plane
View from above orbital plane
View from above satellite
View from above satellite

Ground track
Ground track

The orbit data is extracted from the following two-line orbital elements,

1 24827U 97028A   21136.32739288  .00000129  00000-0  21173-2 0  9992
2 24827  63.3214  79.2648 1036197  46.0717 103.3108 11.07954075968707
Epoch (UTC): 16 May 2021 07:51:26
Eccentricity: 0.1036197
inclination: 63.3214°
perigee height: 1240 km
apogee height: 3002 km
right ascension of ascending node: 79.2648°
argument of perigee: 46.0717°
revolutions per day: 11.07954075
mean anomaly at epoch: 103.3108°
orbit number at epoch: 96870

The dashed part of the orbit path shows where the satellite is in the earth's shadow,  

DLR